IRIDIUM 33 DEB, 34079

Orbit data source: Space-Track

IRIDIUM 33 DEB, 34079 is space debris in LEO originally from a launch on Sun, 14 Sep 1997 UTC launched from the Tyuratam Missile And Space Complex (TTMTR). The debris from Iridium 33, an American commercial communications satellite, has been tracked extensively since its accidental collision with the defunct Russian satellite Cosmos 2251 in 2009. This event, occurring at high speed in low Earth orbit (LEO), generated thousands of pieces of space debris, significantly increasing the risk of further collisions. The Iridium 33 debris cloud has impacted space traffic management and orbital debris mitigation strategies, making it a subject of ongoing study in space situational awareness.

Loading next visibility...
Identifier
34079, 1997-051CN
Orbit
LEO
Country
Flag of USUS
Related business
Manufacturer
Unknown
Mission
Spacecraft
Bus & Motor
Unknown
Mass
Unknown
Launch date (UTC)
1997-09-14 (28 years ago)
Launch vehicle
Unknown
Launch site
Tyuratam Missile And Space Complex (TTMTR)
Object type
Payload
Rocket body
Debris
Shape & HBR
Unknown shape, 0.2 m
Radar Cross Section
Small (<0.1 m²)

Expand to show TLE details & history
Last TLE update: 10 hours ago

TLE from 10 hours ago
0 IRIDIUM 33 DEB
1 34079U 97051CN  25348.81946209  .00011073  00000-0  13396-2 0  9992
2 34079  86.3780   7.7167 0005339   1.7178 183.6258 14.83592970890085
Epoch: 2025-12-14T19:40Z
TLE epoch observation values (Epoch: 2025-12-14T19:40:01.524Z)
Latitude
-5.48492°
Longitude
169.32982°
Altitude
625.731 km
Speed
7.543 km/s
True Right ascension
12h 32m 15s
True Declination
-5° 27' 06"
Sunlit
Object was in daylight at epoch
Visualization orbit readout
Latitude
Unknown
Longitude
Unknown
Altitude
Unknown
Speed
Unknown
Apparent Right ascension
Unknown
Apparent Declination
Unknown
Sunlit
N/A
Visualization observer readout
Local Sidereal Time
04:13:38
Azimuth
Unknown
Elevation
Unknown
Doppler factor
Unknown
Orbital elements
Apogee altitude
618.635 km
Perigee altitude
611.168 km
Semi-major axis
6,993.038 km
Eccentricity
0.00053
Inclination
86.378°
RAAN
7.7167°
Arg. of periapsis
1.7178°
True anomaly
183.62193°
Mean anomaly
183.6258°
Eccentric anomaly
183.62387°
Mean motion
3.71146 °/min
Orbital period
97 mins
BSTAR
0.0013396
Loading maneuver chart data...
Computing Atmospheric mass density...

Documentation

Showing up to 5 results
|